Terminal Aerodrome Forecast
Issued by NWS Denver/Boulder, CO

Home | Current Version | Previous Version | Text Only | Print | Product List | Glossary On
Versions: 1 2 3 4 5 6 7 8 9 10 11 12 13 14 15 16 17 18 19 20 21 22 23 24 25 26 27 28 29 30 31 32 33 34 35 36 37 38 39 40 41 42 43 44 45 46 47 48 49 50
000
FTUS45 KBOU 292323
TAFDEN
TAF
KDEN 292323Z 3000/3106 15007KT P6SM FEW080 BKN220
     FM300200 19007KT P6SM FEW080 BKN200
     FM300400 21007KT P6SM FEW080 BKN220
     FM301300 VRB05KT P6SM SCT070 BKN150
     FM301700 04008KT P6SM SCT060 OVC140
     FM310000 36005KT P6SM SCT080 BKN140=

USA.gov is the U.S. government's official web portal to all federal, state and local government web resources and services.